Time,TemperatureF,DewpointF,PressureIn,WindDirection,WindDirectionDegrees,WindSpeedMPH,WindSpeedGustMPH,Humidity,HourlyPrecipIn,Conditions,Clouds,dailyrainin,SoftwareType,DateUTC
2013-03-16 00:00:00,53.6,36.9,29.90,South,173,0.0,2.0,53,0.00,,,0.00,Wunderground v.1.15,2013-03-16 04:00:00,
2013-03-16 00:05:00,53.5,37.3,29.89,South,173,0.0,2.0,54,0.00,,,0.00,Wunderground v.1.15,2013-03-16 04:05:00,
2013-03-16 00:10:00,53.3,37.1,29.89,South,173,0.0,2.0,54,0.00,,,0.00,Wunderground v.1.15,2013-03-16 04:10:00,
2013-03-16 00:20:00,53.1,37.8,29.89,South,190,0.0,2.0,56,0.00,,,0.00,Wunderground v.1.15,2013-03-16 04:20:00,
2013-03-16 00:25:00,53.1,37.8,29.89,South,172,0.0,2.0,56,0.00,,,0.00,Wunderground v.1.15,2013-03-16 04:25:00,
2013-03-16 00:30:00,53.0,38.2,29.89,South,172,0.0,2.0,57,0.00,,,0.00,Wunderground v.1.15,2013-03-16 04:30:00,
2013-03-16 00:35:00,52.9,38.1,29.88,South,188,0.0,2.0,57,0.00,,,0.00,Wunderground v.1.15,2013-03-16 04:35:00,
2013-03-16 00:45:00,52.9,38.5,29.88,South,183,0.0,2.0,58,0.00,,,0.00,Wunderground v.1.15,2013-03-16 04:45:00,
2013-03-16 00:50:00,52.9,38.5,29.88,SSE,161,0.0,2.0,58,0.00,,,0.00,Wunderground v.1.15,2013-03-16 04:50:00,
2013-03-16 00:55:00,53.0,38.6,29.88,SW,227,0.0,2.0,58,0.00,,,0.00,Wunderground v.1.15,2013-03-16 04:55:00,
2013-03-16 01:00:00,53.0,39.0,29.88,South,169,0.0,2.0,59,0.00,,,0.00,Wunderground v.1.15,2013-03-16 05:00:00,
2013-03-16 01:05:00,53.1,38.7,29.88,South,169,0.0,2.0,58,0.00,,,0.00,Wunderground v.1.15,2013-03-16 05:05:00,
2013-03-16 01:10:00,53.2,39.2,29.87,SW,236,0.0,2.0,59,0.00,,,0.00,Wunderground v.1.15,2013-03-16 05:10:00,
2013-03-16 01:15:00,53.3,39.3,29.87,South,176,0.0,2.0,59,0.00,,,0.00,Wunderground v.1.15,2013-03-16 05:15:00,
2013-03-16 01:20:00,53.3,39.3,29.87,South,187,0.0,2.0,59,0.00,,,0.00,Wunderground v.1.15,2013-03-16 05:20:00,
2013-03-16 01:25:00,53.3,39.3,29.88,South,187,0.0,2.0,59,0.00,,,0.00,Wunderground v.1.15,2013-03-16 05:25:00,
2013-03-16 01:30:00,53.4,39.4,29.87,WSW,240,0.0,2.0,59,0.00,,,0.00,Wunderground v.1.15,2013-03-16 05:30:00,
2013-03-16 01:35:00,53.4,39.4,29.87,WSW,240,0.0,2.0,59,0.00,,,0.00,Wunderground v.1.15,2013-03-16 05:35:00,
2013-03-16 01:45:00,53.5,39.5,29.87,SW,226,0.0,2.0,59,0.00,,,0.00,Wunderground v.1.15,2013-03-16 05:45:00,
2013-03-16 01:50:00,53.5,39.5,29.87,SW,217,0.0,2.0,59,0.00,,,0.00,Wunderground v.1.15,2013-03-16 05:50:00,
2013-03-16 01:55:00,53.5,39.5,29.87,SW,217,0.0,2.0,59,0.00,,,0.00,Wunderground v.1.15,2013-03-16 05:55:00,
2013-03-16 02:00:00,53.4,39.4,29.87,South,171,0.0,2.0,59,0.00,,,0.00,Wunderground v.1.15,2013-03-16 06:00:00,
2013-03-16 02:05:00,53.4,39.4,29.87,South,171,0.0,2.0,59,0.00,,,0.00,Wunderground v.1.15,2013-03-16 06:05:00,
2013-03-16 02:10:00,53.4,39.9,29.86,South,183,0.0,2.0,60,0.00,,,0.00,Wunderground v.1.15,2013-03-16 06:10:00,
2013-03-16 02:20:00,53.3,39.8,29.86,SSE,161,0.0,2.0,60,0.00,,,0.00,Wunderground v.1.15,2013-03-16 06:20:00,
2013-03-16 02:25:00,53.3,39.8,29.85,SSE,161,0.0,2.0,60,0.00,,,0.00,Wunderground v.1.15,2013-03-16 06:25:00,
2013-03-16 02:30:00,53.2,39.7,29.85,SSE,161,0.0,2.0,60,0.00,,,0.00,Wunderground v.1.15,2013-03-16 06:30:00,
2013-03-16 02:35:00,53.2,39.7,29.85,SSE,161,0.0,2.0,60,0.00,,,0.00,Wunderground v.1.15,2013-03-16 06:35:00,
2013-03-16 02:45:00,53.0,39.9,29.85,SSE,161,0.0,2.0,61,0.00,,,0.00,Wunderground v.1.15,2013-03-16 06:45:00,
2013-03-16 02:50:00,53.0,39.9,29.85,South,171,0.0,2.0,61,0.00,,,0.00,Wunderground v.1.15,2013-03-16 06:50:00,
2013-03-16 02:55:00,53.0,39.9,29.85,SSW,207,0.0,2.0,61,0.00,,,0.00,Wunderground v.1.15,2013-03-16 06:55:00,
2013-03-16 03:00:00,53.0,40.3,29.85,South,191,0.0,2.0,62,0.00,,,0.00,Wunderground v.1.15,2013-03-16 07:00:00,
2013-03-16 03:05:00,53.0,40.3,29.85,South,186,0.0,2.0,62,0.00,,,0.00,Wunderground v.1.15,2013-03-16 07:05:00,
2013-03-16 03:10:00,52.9,40.2,29.85,SSW,192,0.0,2.0,62,0.00,,,0.00,Wunderground v.1.15,2013-03-16 07:10:00,
2013-03-16 03:20:00,52.9,40.2,29.84,SSW,196,0.0,2.0,62,0.00,,,0.00,Wunderground v.1.15,2013-03-16 07:20:00,
2013-03-16 03:25:00,53.0,40.3,29.84,SW,215,0.0,2.0,62,0.00,,,0.00,Wunderground v.1.15,2013-03-16 07:25:00,
2013-03-16 03:30:00,53.0,40.3,29.84,SSW,209,0.0,2.0,62,0.00,,,0.00,Wunderground v.1.15,2013-03-16 07:30:00,
2013-03-16 03:35:00,53.0,40.7,29.84,South,188,0.0,2.0,63,0.00,,,0.00,Wunderground v.1.15,2013-03-16 07:35:00,
2013-03-16 03:40:00,53.1,40.8,29.84,South,189,0.0,2.0,63,0.00,,,0.00,Wunderground v.1.15,2013-03-16 07:40:00,
2013-03-16 03:50:00,53.2,40.9,29.84,South,178,0.0,2.0,63,0.00,,,0.00,Wunderground v.1.15,2013-03-16 07:50:00,
2013-03-16 03:55:00,53.2,40.9,29.84,South,188,0.0,2.0,63,0.00,,,0.00,Wunderground v.1.15,2013-03-16 07:55:00,
2013-03-16 04:00:00,53.3,41.0,29.83,South,185,0.0,2.0,63,0.00,,,0.00,Wunderground v.1.15,2013-03-16 08:00:00,
2013-03-16 04:05:00,53.3,41.0,29.83,SSW,192,0.0,2.0,63,0.00,,,0.00,Wunderground v.1.15,2013-03-16 08:05:00,
2013-03-16 04:10:00,53.4,41.1,29.83,SSW,192,0.0,2.0,63,0.00,,,0.00,Wunderground v.1.15,2013-03-16 08:10:00,
2013-03-16 04:15:00,53.5,41.2,29.83,SSW,194,0.0,2.0,63,0.00,,,0.00,Wunderground v.1.15,2013-03-16 08:15:00,
2013-03-16 04:25:00,53.6,41.3,29.83,SW,218,0.0,2.0,63,0.00,,,0.00,Wunderground v.1.15,2013-03-16 08:25:00,
2013-03-16 04:30:00,53.6,41.3,29.83,SSW,213,0.0,2.0,63,0.00,,,0.00,Wunderground v.1.15,2013-03-16 08:30:00,
2013-03-16 04:35:00,53.7,41.4,29.82,South,175,0.0,2.0,63,0.00,,,0.00,Wunderground v.1.15,2013-03-16 08:35:00,
2013-03-16 04:40:00,53.7,41.4,29.82,SSW,192,0.0,2.0,63,0.00,,,0.00,Wunderground v.1.15,2013-03-16 08:40:00,
2013-03-16 04:45:00,53.9,41.6,29.82,SSE,150,0.0,2.0,63,0.00,,,0.00,Wunderground v.1.15,2013-03-16 08:45:00,
2013-03-16 04:50:00,54.0,41.3,29.82,SSE,150,0.0,2.0,62,0.00,,,0.00,Wunderground v.1.15,2013-03-16 08:50:00,
2013-03-16 04:55:00,54.0,41.3,29.83,SSE,158,0.0,2.0,62,0.00,,,0.00,Wunderground v.1.15,2013-03-16 08:55:00,
2013-03-16 05:00:00,54.1,41.4,29.83,SSW,194,0.0,2.0,62,0.00,,,0.00,Wunderground v.1.15,2013-03-16 09:00:00,
2013-03-16 05:05:00,54.1,41.4,29.82,SW,230,0.0,2.0,62,0.00,,,0.00,Wunderground v.1.15,2013-03-16 09:05:00,
2013-03-16 05:10:00,54.2,41.5,29.83,SW,228,0.0,2.0,62,0.00,,,0.00,Wunderground v.1.15,2013-03-16 09:10:00,
2013-03-16 05:15:00,54.2,41.5,29.83,SSW,200,0.0,2.0,62,0.00,,,0.00,Wunderground v.1.15,2013-03-16 09:15:00,
2013-03-16 05:25:00,54.2,41.5,29.83,East,92,0.0,2.0,62,0.00,,,0.00,Wunderground v.1.15,2013-03-16 09:25:00,
2013-03-16 05:30:00,54.2,41.5,29.83,East,92,0.0,2.0,62,0.00,,,0.00,Wunderground v.1.15,2013-03-16 09:30:00,
2013-03-16 05:35:00,54.1,41.8,29.83,East,96,0.0,2.0,63,0.00,,,0.00,Wunderground v.1.15,2013-03-16 09:35:00,
2013-03-16 05:40:00,54.1,41.8,29.83,SSE,155,0.0,2.0,63,0.00,,,0.00,Wunderground v.1.15,2013-03-16 09:40:00,
2013-03-16 05:45:00,54.0,41.7,29.83,SSE,163,0.0,2.0,63,0.00,,,0.00,Wunderground v.1.15,2013-03-16 09:45:00,
2013-03-16 05:50:00,54.0,41.7,29.83,SSE,163,0.0,2.0,63,0.00,,,0.00,Wunderground v.1.15,2013-03-16 09:50:00,
2013-03-16 05:55:00,53.9,41.6,29.83,SSE,163,0.0,2.0,63,0.00,,,0.00,Wunderground v.1.15,2013-03-16 09:55:00,
2013-03-16 06:00:00,53.9,42.0,29.83,SSE,163,0.0,2.0,64,0.00,,,0.00,Wunderground v.1.15,2013-03-16 10:00:00,
2013-03-16 06:05:00,54.0,42.1,29.82,SSE,165,0.0,2.0,64,0.00,,,0.00,Wunderground v.1.15,2013-03-16 10:05:00,
2013-03-16 06:10:00,54.0,42.1,29.82,SSE,165,0.0,2.0,64,0.00,,,0.00,Wunderground v.1.15,2013-03-16 10:10:00,
2013-03-16 06:15:00,54.1,42.2,29.83,South,184,0.0,2.0,64,0.00,,,0.00,Wunderground v.1.15,2013-03-16 10:15:00,
2013-03-16 06:20:00,54.2,41.9,29.83,SE,145,0.0,2.0,63,0.00,,,0.00,Wunderground v.1.15,2013-03-16 10:20:00,
2013-03-16 06:30:00,54.5,42.2,29.82,SSE,152,0.0,2.0,63,0.00,,,0.00,Wunderground v.1.15,2013-03-16 10:30:00,
2013-03-16 06:35:00,54.6,42.3,29.83,NNE,21,0.0,2.0,63,0.00,,,0.00,Wunderground v.1.15,2013-03-16 10:35:00,
2013-03-16 06:40:00,54.7,42.3,29.83,NNW,344,0.0,2.0,63,0.00,,,0.00,Wunderground v.1.15,2013-03-16 10:40:00,
2013-03-16 06:45:00,54.9,42.5,29.83,South,180,0.0,2.0,63,0.00,,,0.00,Wunderground v.1.15,2013-03-16 10:45:00,
2013-03-16 06:50:00,55.0,42.6,29.83,South,177,0.0,2.0,63,0.00,,,0.00,Wunderground v.1.15,2013-03-16 10:50:00,
2013-03-16 06:55:00,55.2,42.4,29.83,SE,126,0.0,2.0,62,0.00,,,0.00,Wunderground v.1.15,2013-03-16 10:55:00,
2013-03-16 07:05:00,55.6,42.8,29.83,SSE,165,0.0,2.0,62,0.00,,,0.00,Wunderground v.1.15,2013-03-16 11:05:00,
2013-03-16 07:10:00,55.8,43.0,29.83,South,186,0.0,2.0,62,0.00,,,0.00,Wunderground v.1.15,2013-03-16 11:10:00,
2013-03-16 07:15:00,55.9,43.1,29.83,South,189,0.0,2.0,62,0.00,,,0.00,Wunderground v.1.15,2013-03-16 11:15:00,
2013-03-16 07:25:00,56.2,42.9,29.83,ESE,120,0.0,2.0,61,0.00,,,0.00,Wunderground v.1.15,2013-03-16 11:25:00,
2013-03-16 07:30:00,56.3,43.0,29.84,SE,145,0.0,2.0,61,0.00,,,0.00,Wunderground v.1.15,2013-03-16 11:30:00,
2013-03-16 07:35:00,56.3,43.0,29.83,SE,137,0.0,2.0,61,0.00,,,0.00,Wunderground v.1.15,2013-03-16 11:35:00,
2013-03-16 07:40:00,56.3,43.0,29.83,West,275,0.0,2.0,61,0.00,,,0.00,Wunderground v.1.15,2013-03-16 11:40:00,
2013-03-16 07:45:00,56.3,43.0,29.83,WSW,240,0.0,2.0,61,0.00,,,0.00,Wunderground v.1.15,2013-03-16 11:45:00,
2013-03-16 07:50:00,56.3,43.0,29.83,SE,133,0.0,2.0,61,0.00,,,0.00,Wunderground v.1.15,2013-03-16 11:50:00,
2013-03-16 07:55:00,56.3,43.0,29.84,SSE,161,0.0,2.0,61,0.00,,,0.00,Wunderground v.1.15,2013-03-16 11:55:00,
2013-03-16 08:00:00,56.3,43.4,29.84,ESE,107,0.0,2.0,62,0.00,,,0.00,Wunderground v.1.15,2013-03-16 12:00:00,
2013-03-16 08:10:00,56.4,43.5,29.84,SSE,148,0.0,2.0,62,0.00,,,0.00,Wunderground v.1.15,2013-03-16 12:10:00,
2013-03-16 08:15:00,56.4,43.5,29.85,SSW,211,0.0,2.0,62,0.00,,,0.00,Wunderground v.1.15,2013-03-16 12:15:00,
2013-03-16 08:20:00,56.5,43.6,29.85,SE,127,0.0,2.0,62,0.00,,,0.00,Wunderground v.1.15,2013-03-16 12:20:00,
2013-03-16 08:25:00,56.6,43.7,29.84,South,170,0.0,2.0,62,0.00,,,0.00,Wunderground v.1.15,2013-03-16 12:25:00,
2013-03-16 08:35:00,56.6,43.7,29.84,South,177,0.0,2.0,62,0.00,,,0.00,Wunderground v.1.15,2013-03-16 12:35:00,
2013-03-16 08:40:00,56.7,43.8,29.84,South,183,0.0,2.0,62,0.00,,,0.00,Wunderground v.1.15,2013-03-16 12:40:00,
2013-03-16 08:45:00,56.7,43.8,29.84,SSW,198,0.0,2.0,62,0.00,,,0.00,Wunderground v.1.15,2013-03-16 12:45:00,
2013-03-16 08:50:00,56.7,43.8,29.84,SSE,165,0.0,2.0,62,0.00,,,0.00,Wunderground v.1.15,2013-03-16 12:50:00,
2013-03-16 08:55:00,56.8,44.3,29.84,West,273,0.0,2.0,63,0.00,,,0.00,Wunderground v.1.15,2013-03-16 12:55:00,
2013-03-16 09:00:00,56.9,44.4,29.84,SSW,192,0.0,2.0,63,0.00,,,0.00,Wunderground v.1.15,2013-03-16 13:00:00,
2013-03-16 09:05:00,57.0,44.5,29.84,South,182,0.0,2.0,63,0.00,,,0.00,Wunderground v.1.15,2013-03-16 13:05:00,
2013-03-16 09:10:00,57.1,44.2,29.83,SW,221,0.0,2.0,62,0.00,,,0.00,Wunderground v.1.15,2013-03-16 13:10:00,
2013-03-16 09:15:00,57.2,44.3,29.83,SW,221,0.0,2.0,62,0.00,,,0.00,Wunderground v.1.15,2013-03-16 13:15:00,
2013-03-16 09:20:00,57.3,44.8,29.83,South,171,0.0,2.0,63,0.00,,,0.00,Wunderground v.1.15,2013-03-16 13:20:00,
2013-03-16 09:25:00,57.5,44.6,29.84,South,183,0.0,2.0,62,0.00,,,0.00,Wunderground v.1.15,2013-03-16 13:25:00,
2013-03-16 09:35:00,57.8,44.9,29.85,WSW,253,0.0,2.0,62,0.00,,,0.00,Wunderground v.1.15,2013-03-16 13:35:00,
2013-03-16 09:40:00,58.0,45.0,29.84,SSE,155,0.0,2.0,62,0.00,,,0.00,Wunderground v.1.15,2013-03-16 13:40:00,
2013-03-16 09:45:00,58.3,45.3,29.84,SE,130,0.0,2.0,62,0.00,,,0.00,Wunderground v.1.15,2013-03-16 13:45:00,
2013-03-16 09:50:00,58.7,45.3,29.83,SE,144,0.0,2.0,61,0.00,,,0.00,Wunderground v.1.15,2013-03-16 13:50:00,
2013-03-16 09:55:00,59.0,45.6,29.83,SE,144,0.0,2.0,61,0.00,,,0.00,Wunderground v.1.15,2013-03-16 13:55:00,
2013-03-16 10:00:00,59.0,45.6,29.83,NNE,12,0.0,2.0,61,0.00,,,0.00,Wunderground v.1.15,2013-03-16 14:00:00,
2013-03-16 10:05:00,59.3,45.8,29.83,NE,38,0.0,2.0,61,0.00,,,0.00,Wunderground v.1.15,2013-03-16 14:05:00,
2013-03-16 10:10:00,59.6,46.1,29.83,SE,146,0.0,2.0,61,0.00,,,0.00,Wunderground v.1.15,2013-03-16 14:10:00,
2013-03-16 10:15:00,59.8,45.9,29.83,SE,146,0.0,2.0,60,0.00,,,0.00,Wunderground v.1.15,2013-03-16 14:15:00,
2013-03-16 10:20:00,60.0,46.1,29.82,South,180,0.0,2.0,60,0.00,,,0.00,Wunderground v.1.15,2013-03-16 14:20:00,
2013-03-16 10:25:00,60.2,46.3,29.82,North,11,0.0,2.0,60,0.00,,,0.00,Wunderground v.1.15,2013-03-16 14:25:00,
2013-03-16 10:30:00,60.4,46.4,29.82,North,11,0.0,2.0,60,0.00,,,0.00,Wunderground v.1.15,2013-03-16 14:30:00,
2013-03-16 10:40:00,60.8,46.4,29.82,East,80,0.0,2.0,59,0.00,,,0.00,Wunderground v.1.15,2013-03-16 14:40:00,
2013-03-16 10:45:00,61.0,46.6,29.82,SE,138,0.0,2.0,59,0.00,,,0.00,Wunderground v.1.15,2013-03-16 14:45:00,
2013-03-16 10:50:00,61.1,46.7,29.82,SSE,156,0.0,2.0,59,0.00,,,0.00,Wunderground v.1.15,2013-03-16 14:50:00,
2013-03-16 10:55:00,61.3,47.3,29.82,SSE,157,0.0,2.0,60,0.00,,,0.00,Wunderground v.1.15,2013-03-16 14:55:00,
2013-03-16 11:00:00,61.5,47.5,29.82,SSE,157,0.0,2.0,60,0.00,,,0.00,Wunderground v.1.15,2013-03-16 15:00:00,
2013-03-16 11:10:00,62.0,47.5,29.82,SSE,166,0.0,2.0,59,0.00,,,0.00,Wunderground v.1.15,2013-03-16 15:10:00,
2013-03-16 11:15:00,62.2,47.2,29.82,SSE,166,0.0,2.0,58,0.00,,,0.00,Wunderground v.1.15,2013-03-16 15:15:00,
2013-03-16 11:25:00,62.8,47.3,29.81,South,171,0.0,2.0,57,0.00,,,0.00,Wunderground v.1.15,2013-03-16 15:25:00,
2013-03-16 11:30:00,63.1,47.6,29.81,SSE,163,0.0,2.0,57,0.00,,,0.00,Wunderground v.1.15,2013-03-16 15:30:00,
2013-03-16 11:40:00,63.6,47.6,29.81,South,169,0.0,2.0,56,0.00,,,0.00,Wunderground v.1.15,2013-03-16 15:40:00,
2013-03-16 11:45:00,63.9,47.4,29.81,South,169,0.0,2.0,55,0.00,,,0.00,Wunderground v.1.15,2013-03-16 15:45:00,
2013-03-16 11:55:00,64.7,47.7,29.80,SSE,165,1.0,2.0,54,0.00,,,0.00,Wunderground v.1.15,2013-03-16 15:55:00,
2013-03-16 12:00:00,65.7,48.6,29.80,ESE,111,0.0,2.0,54,0.00,,,0.00,Wunderground v.1.15,2013-03-16 16:00:00,
2013-03-16 12:05:00,67.0,49.3,29.80,ESE,115,0.0,2.0,53,0.00,,,0.00,Wunderground v.1.15,2013-03-16 16:05:00,
2013-03-16 12:10:00,67.8,49.0,29.79,SE,130,0.0,2.0,51,0.00,,,0.00,Wunderground v.1.15,2013-03-16 16:10:00,
2013-03-16 12:20:00,68.6,49.2,29.79,SSE,167,0.0,3.0,50,0.00,,,0.00,Wunderground v.1.15,2013-03-16 16:20:00,
2013-03-16 12:25:00,68.9,48.9,29.78,South,173,0.0,3.0,49,0.00,,,0.00,Wunderground v.1.15,2013-03-16 16:25:00,
2013-03-16 12:30:00,68.9,48.9,29.79,SSW,203,1.0,1.0,49,0.00,,,0.00,Wunderground v.1.15,2013-03-16 16:30:00,
2013-03-16 12:35:00,69.4,49.4,29.78,WSW,253,1.0,2.0,49,0.00,,,0.00,Wunderground v.1.15,2013-03-16 16:35:00,
2013-03-16 12:40:00,70.0,49.4,29.78,South,184,0.0,2.0,48,0.00,,,0.00,Wunderground v.1.15,2013-03-16 16:40:00,
2013-03-16 12:45:00,70.5,49.3,29.78,NNE,15,0.0,2.0,47,0.00,,,0.00,Wunderground v.1.15,2013-03-16 16:45:00,
2013-03-16 12:50:00,71.3,50.6,29.78,SSW,205,0.0,2.0,48,0.00,,,0.00,Wunderground v.1.15,2013-03-16 16:50:00,
2013-03-16 12:55:00,72.2,50.3,29.78,SW,223,0.0,2.0,46,0.00,,,0.00,Wunderground v.1.15,2013-03-16 16:55:00,
2013-03-16 13:00:00,72.6,50.0,29.77,SSE,154,0.0,2.0,45,0.00,,,0.00,Wunderground v.1.15,2013-03-16 17:00:00,
2013-03-16 13:05:00,73.4,50.8,29.77,SW,217,0.0,2.0,45,0.00,,,0.00,Wunderground v.1.15,2013-03-16 17:05:00,
2013-03-16 13:15:00,74.4,50.4,29.76,SSE,155,0.0,3.0,43,0.00,,,0.00,Wunderground v.1.15,2013-03-16 17:15:00,
2013-03-16 13:20:00,74.6,49.3,29.76,South,172,1.0,2.0,41,0.00,,,0.00,Wunderground v.1.15,2013-03-16 17:20:00,
2013-03-16 13:25:00,74.6,50.0,29.76,SE,138,1.0,2.0,42,0.00,,,0.00,Wunderground v.1.15,2013-03-16 17:25:00,
2013-03-16 13:30:00,75.3,50.0,29.75,SW,219,1.0,1.0,41,0.00,,,0.00,Wunderground v.1.15,2013-03-16 17:30:00,
2013-03-16 13:35:00,75.5,50.8,29.75,South,172,0.0,2.0,42,0.00,,,0.00,Wunderground v.1.15,2013-03-16 17:35:00,
2013-03-16 13:40:00,76.6,51.1,29.75,South,173,0.0,2.0,41,0.00,,,0.00,Wunderground v.1.15,2013-03-16 17:40:00,
2013-03-16 13:45:00,76.4,50.3,29.75,SW,234,1.0,2.0,40,0.00,,,0.00,Wunderground v.1.15,2013-03-16 17:45:00,
2013-03-16 13:50:00,76.2,50.8,29.74,SSW,213,1.0,1.0,41,0.00,,,0.00,Wunderground v.1.15,2013-03-16 17:50:00,
2013-03-16 13:55:00,76.8,50.0,29.74,South,185,0.0,2.0,39,0.00,,,0.00,Wunderground v.1.15,2013-03-16 17:55:00,
2013-03-16 14:05:00,76.8,50.0,29.74,ESE,118,1.0,2.0,39,0.00,,,0.00,Wunderground v.1.15,2013-03-16 18:05:00,
2013-03-16 14:10:00,77.0,50.1,29.74,ENE,72,1.0,2.0,39,0.00,,,0.00,Wunderground v.1.15,2013-03-16 18:10:00,
2013-03-16 14:20:00,78.0,50.3,29.73,SSE,153,0.0,2.0,38,0.00,,,0.00,Wunderground v.1.15,2013-03-16 18:20:00,
2013-03-16 14:25:00,78.4,51.4,29.73,SSE,149,0.0,2.0,39,0.00,,,0.00,Wunderground v.1.15,2013-03-16 18:25:00,
2013-03-16 14:30:00,78.7,51.7,29.73,East,93,0.0,2.0,39,0.00,,,0.00,Wunderground v.1.15,2013-03-16 18:30:00,
2013-03-16 14:35:00,78.0,51.0,29.72,SSW,194,0.0,2.0,39,0.00,,,0.00,Wunderground v.1.15,2013-03-16 18:35:00,
2013-03-16 14:40:00,78.1,50.4,29.72,WSW,247,0.0,2.0,38,0.00,,,0.00,Wunderground v.1.15,2013-03-16 18:40:00,
2013-03-16 14:50:00,78.2,50.5,29.71,South,173,1.0,3.0,38,0.00,,,0.00,Wunderground v.1.15,2013-03-16 18:50:00,
2013-03-16 14:55:00,78.7,51.0,29.71,SW,236,1.0,3.0,38,0.00,,,0.00,Wunderground v.1.15,2013-03-16 18:55:00,
2013-03-16 15:00:00,78.7,50.2,29.71,SSW,202,1.0,1.0,37,0.00,,,0.00,Wunderground v.1.15,2013-03-16 19:00:00,
2013-03-16 15:05:00,79.0,49.8,29.70,NNE,17,1.0,2.0,36,0.00,,,0.00,Wunderground v.1.15,2013-03-16 19:05:00,
2013-03-16 15:10:00,78.8,49.6,29.70,WSW,253,0.0,2.0,36,0.00,,,0.00,Wunderground v.1.15,2013-03-16 19:10:00,
2013-03-16 15:20:00,78.9,49.7,29.69,SSE,160,0.0,2.0,36,0.00,,,0.00,Wunderground v.1.15,2013-03-16 19:20:00,
2013-03-16 15:25:00,78.9,49.7,29.69,North,5,0.0,2.0,36,0.00,,,0.00,Wunderground v.1.15,2013-03-16 19:25:00,
2013-03-16 15:30:00,79.2,49.9,29.69,South,183,1.0,1.0,36,0.00,,,0.00,Wunderground v.1.15,2013-03-16 19:30:00,
2013-03-16 15:35:00,78.8,50.3,29.69,SW,219,1.0,2.0,37,0.00,,,0.00,Wunderground v.1.15,2013-03-16 19:35:00,
2013-03-16 15:40:00,78.7,50.2,29.69,SSE,167,1.0,1.0,37,0.00,,,0.00,Wunderground v.1.15,2013-03-16 19:40:00,
2013-03-16 15:45:00,79.0,50.5,29.68,SSE,161,0.0,2.0,37,0.00,,,0.00,Wunderground v.1.15,2013-03-16 19:45:00,
2013-03-16 15:55:00,78.7,50.2,29.69,SSE,159,1.0,2.0,37,0.00,,,0.00,Wunderground v.1.15,2013-03-16 19:55:00,
2013-03-16 16:00:00,78.5,49.3,29.68,South,186,0.0,2.0,36,0.00,,,0.00,Wunderground v.1.15,2013-03-16 20:00:00,
2013-03-16 16:05:00,78.6,50.1,29.68,North,355,1.0,2.0,37,0.00,,,0.00,Wunderground v.1.15,2013-03-16 20:05:00,
2013-03-16 16:10:00,78.9,49.7,29.68,South,186,1.0,3.0,36,0.00,,,0.00,Wunderground v.1.15,2013-03-16 20:10:00,
2013-03-16 16:20:00,79.3,49.3,29.68,North,10,1.0,4.0,35,0.00,,,0.00,Wunderground v.1.15,2013-03-16 20:20:00,
2013-03-16 16:25:00,79.4,50.1,29.68,South,177,1.0,4.0,36,0.00,,,0.00,Wunderground v.1.15,2013-03-16 20:25:00,
2013-03-16 16:30:00,79.3,50.0,29.68,SE,146,1.0,1.0,36,0.00,,,0.00,Wunderground v.1.15,2013-03-16 20:30:00,
2013-03-16 16:35:00,79.2,49.2,29.68,South,175,1.0,2.0,35,0.00,,,0.00,Wunderground v.1.15,2013-03-16 20:35:00,
2013-03-16 16:40:00,79.0,49.0,29.67,NE,51,0.0,2.0,35,0.00,,,0.00,Wunderground v.1.15,2013-03-16 20:40:00,
2013-03-16 16:45:00,78.7,48.7,29.68,NNE,28,0.0,2.0,35,0.00,,,0.00,Wunderground v.1.15,2013-03-16 20:45:00,
2013-03-16 16:55:00,78.2,48.3,29.67,SW,232,0.0,2.0,35,0.00,,,0.00,Wunderground v.1.15,2013-03-16 20:55:00,
2013-03-16 17:00:00,78.0,48.1,29.67,SSE,155,1.0,1.0,35,0.00,,,0.00,Wunderground v.1.15,2013-03-16 21:00:00,
2013-03-16 17:05:00,77.7,47.9,29.67,South,171,1.0,2.0,35,0.00,,,0.00,Wunderground v.1.15,2013-03-16 21:05:00,
2013-03-16 17:10:00,77.5,48.4,29.67,SE,134,1.0,1.0,36,0.00,,,0.00,Wunderground v.1.15,2013-03-16 21:10:00,
2013-03-16 17:15:00,77.3,48.3,29.67,SSE,151,0.0,2.0,36,0.00,,,0.00,Wunderground v.1.15,2013-03-16 21:15:00,
2013-03-16 17:20:00,77.3,49.0,29.67,SSE,149,0.0,2.0,37,0.00,,,0.00,Wunderground v.1.15,2013-03-16 21:20:00,
2013-03-16 17:30:00,77.8,49.4,29.66,ESE,123,0.0,2.0,37,0.00,,,0.00,Wunderground v.1.15,2013-03-16 21:30:00,
2013-03-16 17:35:00,78.0,49.6,29.66,NE,40,0.0,2.0,37,0.00,,,0.00,Wunderground v.1.15,2013-03-16 21:35:00,
2013-03-16 17:40:00,78.1,49.0,29.66,SSE,164,0.0,2.0,36,0.00,,,0.00,Wunderground v.1.15,2013-03-16 21:40:00,
2013-03-16 17:45:00,78.2,49.8,29.66,South,180,1.0,2.0,37,0.00,,,0.00,Wunderground v.1.15,2013-03-16 21:45:00,
2013-03-16 17:50:00,78.2,49.1,29.66,North,355,0.0,2.0,36,0.00,,,0.00,Wunderground v.1.15,2013-03-16 21:50:00,
2013-03-16 18:00:00,77.9,48.0,29.66,SSW,203,1.0,2.0,35,0.00,,,0.00,Wunderground v.1.15,2013-03-16 22:00:00,
2013-03-16 18:05:00,77.8,47.9,29.66,SW,221,1.0,2.0,35,0.00,,,0.00,Wunderground v.1.15,2013-03-16 22:05:00,
2013-03-16 18:10:00,77.7,47.9,29.66,SSW,209,0.0,2.0,35,0.00,,,0.00,Wunderground v.1.15,2013-03-16 22:10:00,
2013-03-16 18:15:00,77.7,47.9,29.67,SSE,156,0.0,2.0,35,0.00,,,0.00,Wunderground v.1.15,2013-03-16 22:15:00,
2013-03-16 18:25:00,77.4,48.3,29.67,South,184,1.0,2.0,36,0.00,,,0.00,Wunderground v.1.15,2013-03-16 22:25:00,
2013-03-16 18:30:00,77.1,48.1,29.67,East,98,1.0,1.0,36,0.00,,,0.00,Wunderground v.1.15,2013-03-16 22:30:00,
2013-03-16 18:35:00,76.9,47.9,29.67,SSW,194,1.0,2.0,36,0.00,,,0.00,Wunderground v.1.15,2013-03-16 22:35:00,
2013-03-16 18:40:00,76.8,47.8,29.67,SE,138,1.0,2.0,36,0.00,,,0.00,Wunderground v.1.15,2013-03-16 22:40:00,
2013-03-16 18:45:00,76.5,47.6,29.67,South,171,1.0,2.0,36,0.00,,,0.00,Wunderground v.1.15,2013-03-16 22:45:00,
2013-03-16 18:50:00,76.3,47.4,29.67,SSW,198,1.0,2.0,36,0.00,,,0.00,Wunderground v.1.15,2013-03-16 22:50:00,
2013-03-16 19:00:00,75.9,47.8,29.67,SSE,150,1.0,1.0,37,0.00,,,0.00,Wunderground v.1.15,2013-03-16 23:00:00,
2013-03-16 19:05:00,75.7,47.6,29.68,South,175,0.0,2.0,37,0.00,,,0.00,Wunderground v.1.15,2013-03-16 23:05:00,
2013-03-16 19:10:00,75.6,47.5,29.68,SSE,148,0.0,2.0,37,0.00,,,0.00,Wunderground v.1.15,2013-03-16 23:10:00,
2013-03-16 19:15:00,75.4,47.3,29.68,West,272,0.0,2.0,37,0.00,,,0.00,Wunderground v.1.15,2013-03-16 23:15:00,
2013-03-16 19:20:00,75.3,47.2,29.68,ESE,116,0.0,2.0,37,0.00,,,0.00,Wunderground v.1.15,2013-03-16 23:20:00,
2013-03-16 19:25:00,75.1,47.0,29.68,WSW,247,0.0,2.0,37,0.00,,,0.00,Wunderground v.1.15,2013-03-16 23:25:00,
2013-03-16 19:35:00,74.7,47.4,29.69,South,171,0.0,2.0,38,0.00,,,0.00,Wunderground v.1.15,2013-03-16 23:35:00,
2013-03-16 19:40:00,74.4,47.1,29.69,SSW,208,0.0,2.0,38,0.00,,,0.00,Wunderground v.1.15,2013-03-16 23:40:00,
2013-03-16 19:45:00,74.2,47.6,29.70,SSW,208,0.0,2.0,39,0.00,,,0.00,Wunderground v.1.15,2013-03-16 23:45:00,
2013-03-16 19:50:00,74.0,46.8,29.70,South,179,0.0,2.0,38,0.00,,,0.00,Wunderground v.1.15,2013-03-16 23:50:00,
2013-03-16 19:55:00,73.8,46.6,29.70,South,188,0.0,2.0,38,0.00,,,0.00,Wunderground v.1.15,2013-03-16 23:55:00,
2013-03-16 20:05:00,73.6,46.4,29.70,SSW,195,0.0,2.0,38,0.00,,,0.00,Wunderground v.1.15,2013-03-17 00:05:00,
2013-03-16 20:10:00,73.6,46.4,29.71,WSW,247,0.0,2.0,38,0.00,,,0.00,Wunderground v.1.15,2013-03-17 00:10:00,
2013-03-16 20:15:00,73.5,46.3,29.71,South,186,0.0,2.0,38,0.00,,,0.00,Wunderground v.1.15,2013-03-17 00:15:00,
2013-03-16 20:20:00,73.4,46.2,29.71,SSW,192,0.0,2.0,38,0.00,,,0.00,Wunderground v.1.15,2013-03-17 00:20:00,
2013-03-16 20:25:00,73.2,46.1,29.71,SSE,152,0.0,2.0,38,0.00,,,0.00,Wunderground v.1.15,2013-03-17 00:25:00,
2013-03-16 20:35:00,73.0,45.9,29.73,SSE,147,0.0,2.0,38,0.00,,,0.00,Wunderground v.1.15,2013-03-17 00:35:00,
2013-03-16 20:40:00,72.8,45.7,29.73,SE,146,0.0,2.0,38,0.00,,,0.00,Wunderground v.1.15,2013-03-17 00:40:00,
2013-03-16 20:45:00,72.6,45.5,29.73,SSE,148,0.0,2.0,38,0.00,,,0.00,Wunderground v.1.15,2013-03-17 00:45:00,
2013-03-16 20:50:00,72.4,45.4,29.73,SSE,156,0.0,2.0,38,0.00,,,0.00,Wunderground v.1.15,2013-03-17 00:50:00,
2013-03-16 20:55:00,72.3,45.3,29.74,SSE,160,0.0,2.0,38,0.00,,,0.00,Wunderground v.1.15,2013-03-17 00:55:00,
2013-03-16 21:05:00,72.2,44.5,29.74,SSE,163,0.0,2.0,37,0.00,,,0.00,Wunderground v.1.15,2013-03-17 01:05:00,
2013-03-16 21:10:00,72.0,44.3,29.75,SSE,165,0.0,2.0,37,0.00,,,0.00,Wunderground v.1.15,2013-03-17 01:10:00,
2013-03-16 21:15:00,71.9,44.2,29.75,South,172,0.0,2.0,37,0.00,,,0.00,Wunderground v.1.15,2013-03-17 01:15:00,
2013-03-16 21:20:00,71.8,44.1,29.75,SSE,152,0.0,2.0,37,0.00,,,0.00,Wunderground v.1.15,2013-03-17 01:20:00,
2013-03-16 21:25:00,71.7,44.0,29.76,SSE,152,0.0,2.0,37,0.00,,,0.00,Wunderground v.1.15,2013-03-17 01:25:00,
2013-03-16 21:30:00,71.5,43.8,29.76,SSE,156,0.0,2.0,37,0.00,,,0.00,Wunderground v.1.15,2013-03-17 01:30:00,
2013-03-16 21:35:00,71.4,43.8,29.76,SSE,157,0.0,2.0,37,0.00,,,0.00,Wunderground v.1.15,2013-03-17 01:35:00,
2013-03-16 21:40:00,71.3,43.7,29.76,SSE,159,0.0,2.0,37,0.00,,,0.00,Wunderground v.1.15,2013-03-17 01:40:00,
2013-03-16 21:50:00,71.3,43.7,29.77,ENE,64,0.0,2.0,37,0.00,,,0.00,Wunderground v.1.15,2013-03-17 01:50:00,
2013-03-16 22:00:00,71.3,43.0,29.78,SSE,161,0.0,0.0,36,0.00,,,0.00,Wunderground v.1.15,2013-03-17 02:00:00,
2013-03-16 22:10:00,71.4,43.0,29.78,SW,223,0.0,0.0,36,0.00,,,0.00,Wunderground v.1.15,2013-03-17 02:10:00,
2013-03-16 22:15:00,71.4,43.0,29.79,SSW,198,0.0,0.0,36,0.00,,,0.00,Wunderground v.1.15,2013-03-17 02:15:00,
2013-03-16 22:20:00,71.3,43.0,29.79,SSW,198,0.0,0.0,36,0.00,,,0.00,Wunderground v.1.15,2013-03-17 02:20:00,
2013-03-16 22:25:00,71.3,43.0,29.79,WNW,292,0.0,0.0,36,0.00,,,0.00,Wunderground v.1.15,2013-03-17 02:25:00,
2013-03-16 22:35:00,71.2,42.9,29.80,South,184,0.0,0.0,36,0.00,,,0.00,Wunderground v.1.15,2013-03-17 02:35:00,
2013-03-16 22:40:00,71.1,42.8,29.80,South,184,0.0,0.0,36,0.00,,,0.00,Wunderground v.1.15,2013-03-17 02:40:00,
2013-03-16 22:45:00,71.0,42.7,29.80,South,184,0.0,0.0,36,0.00,,,0.00,Wunderground v.1.15,2013-03-17 02:45:00,
2013-03-16 22:50:00,70.8,42.5,29.80,South,184,0.0,0.0,36,0.00,,,0.00,Wunderground v.1.15,2013-03-17 02:50:00,
2013-03-16 22:55:00,70.6,43.1,29.81,South,184,0.0,3.0,37,0.00,,,0.00,Wunderground v.1.15,2013-03-17 02:55:00,
2013-03-16 23:00:00,70.5,43.0,29.81,South,184,0.0,3.0,37,0.00,,,0.00,Wunderground v.1.15,2013-03-17 03:00:00,
2013-03-16 23:05:00,70.3,42.8,29.81,South,184,0.0,3.0,37,0.00,,,0.00,Wunderground v.1.15,2013-03-17 03:05:00,
2013-03-16 23:15:00,69.9,43.1,29.81,South,184,0.0,3.0,38,0.00,,,0.00,Wunderground v.1.15,2013-03-17 03:15:00,
2013-03-16 23:20:00,69.6,42.9,29.81,South,184,0.0,3.0,38,0.00,,,0.00,Wunderground v.1.15,2013-03-17 03:20:00,
2013-03-16 23:25:00,69.4,42.7,29.81,South,184,0.0,3.0,38,0.00,,,0.00,Wunderground v.1.15,2013-03-17 03:25:00,
2013-03-16 23:30:00,69.2,42.5,29.81,South,184,0.0,3.0,38,0.00,,,0.00,Wunderground v.1.15,2013-03-17 03:30:00,
2013-03-16 23:40:00,68.6,43.3,29.82,South,184,0.0,3.0,40,0.00,,,0.00,Wunderground v.1.15,2013-03-17 03:40:00,
2013-03-16 23:45:00,68.3,43.0,29.82,South,184,0.0,3.0,40,0.00,,,0.00,Wunderground v.1.15,2013-03-17 03:45:00,
2013-03-16 23:50:00,68.0,42.8,29.82,South,184,0.0,3.0,40,0.00,,,0.00,Wunderground v.1.15,2013-03-17 03:50:00,
2013-03-16 23:55:00,67.6,43.1,29.82,South,184,0.0,3.0,41,0.00,,,0.00,Wunderground v.1.15,2013-03-17 03:55:00,